Time,TemperatureF,DewpointF,PressureIn,WindDirection,WindDirectionDegrees,WindSpeedMPH,WindSpeedGustMPH,Humidity,HourlyPrecipIn,Conditions,Clouds,dailyrainin,SoftwareType,DateUTC
2013-07-18 00:32:00,77.0,46.0,29.75,East,94,4.0,6.0,33,0.00,,,0.00,,2013-07-18 07:32:00,
2013-07-18 01:11:00,75.0,42.0,29.74,East,90,7.0,9.0,31,0.00,,,0.00,,2013-07-18 08:11:00,
2013-07-18 01:21:00,76.0,40.0,29.74,East,94,7.0,8.0,27,0.00,,,0.00,,2013-07-18 08:21:00,
2013-07-18 02:31:00,77.0,36.0,29.72,East,88,7.0,9.0,23,0.00,,,0.00,,2013-07-18 09:31:00,
2013-07-18 02:41:00,78.0,38.0,29.72,East,82,6.0,9.0,24,0.00,,,0.00,,2013-07-18 09:41:00,
2013-07-18 04:32:00,73.0,49.0,29.70,ESE,115,9.0,11.0,42,0.00,,,0.00,,2013-07-18 11:32:00,
2013-07-18 04:43:00,72.0,48.0,29.70,ESE,116,9.0,10.0,42,0.00,,,0.00,,2013-07-18 11:43:00,
2013-07-18 05:01:00,72.0,49.0,29.70,ESE,120,8.0,9.0,44,0.00,,,0.00,,2013-07-18 12:01:00,
2013-07-18 05:11:00,72.0,49.0,29.70,ESE,120,8.0,9.0,44,0.00,,,0.00,,2013-07-18 12:11:00,
2013-07-18 05:22:00,72.0,46.0,29.70,SE,127,8.0,10.0,40,0.00,,,0.00,,2013-07-18 12:22:00,
2013-07-18 05:32:00,72.0,46.0,29.70,SE,127,8.0,10.0,40,0.00,,,0.00,,2013-07-18 12:32:00,
2013-07-18 05:42:00,72.0,46.0,29.70,SE,127,8.0,10.0,40,0.00,,,0.00,,2013-07-18 12:42:00,
2013-07-18 05:52:00,72.0,46.0,29.70,SE,127,8.0,10.0,40,0.00,,,0.00,,2013-07-18 12:52:00,
2013-07-18 06:01:00,73.0,40.0,29.71,East,89,5.0,7.0,30,0.00,,,0.00,,2013-07-18 13:01:00,
2013-07-18 06:11:00,73.0,40.0,29.71,East,89,5.0,7.0,30,0.00,,,0.00,,2013-07-18 13:11:00,
2013-07-18 06:22:00,73.0,40.0,29.71,East,89,5.0,7.0,30,0.00,,,0.00,,2013-07-18 13:22:00,
2013-07-18 06:32:00,73.0,40.0,29.71,East,89,5.0,7.0,30,0.00,,,0.00,,2013-07-18 13:32:00,
2013-07-18 06:43:00,73.0,40.0,29.71,East,89,5.0,7.0,30,0.00,,,0.00,,2013-07-18 13:43:00,
2013-07-18 09:32:00,77.0,49.0,29.74,North,0,0.0,2.0,38,0.00,,,0.00,,2013-07-18 16:32:00,
2013-07-18 09:42:00,76.0,49.0,29.74,North,0,0.0,1.0,39,0.00,,,0.00,,2013-07-18 16:42:00,
2013-07-18 10:33:00,78.0,55.0,29.73,North,0,0.0,1.0,45,0.00,,,0.00,,2013-07-18 17:33:00,
2013-07-18 10:43:00,78.0,56.0,29.73,North,0,0.0,5.0,47,0.00,,,0.00,,2013-07-18 17:43:00,
2013-07-18 10:52:00,78.0,56.0,29.73,North,0,0.0,5.0,47,0.00,,,0.00,,2013-07-18 17:52:00,
2013-07-18 11:11:00,76.0,56.0,29.73,North,0,0.0,5.0,50,0.00,,,0.00,,2013-07-18 18:11:00,
2013-07-18 11:22:00,76.0,56.0,29.73,North,0,0.0,5.0,50,0.00,,,0.00,,2013-07-18 18:22:00,
2013-07-18 11:32:00,76.0,56.0,29.73,North,0,0.0,5.0,50,0.00,,,0.00,,2013-07-18 18:32:00,
2013-07-18 11:43:00,75.0,55.0,29.72,North,0,0.0,5.0,50,0.00,,,0.00,,2013-07-18 18:43:00,
2013-07-18 11:52:00,75.0,55.0,29.72,North,0,0.0,5.0,50,0.00,,,0.00,,2013-07-18 18:52:00,
2013-07-18 12:01:00,76.0,55.0,29.72,North,0,0.0,3.0,48,0.00,,,0.00,,2013-07-18 19:01:00,
2013-07-18 12:11:00,76.0,55.0,29.72,North,0,0.0,3.0,48,0.00,,,0.00,,2013-07-18 19:11:00,
2013-07-18 12:22:00,78.0,57.0,29.72,North,0,0.0,1.0,48,0.00,,,0.00,,2013-07-18 19:22:00,
2013-07-18 12:32:00,78.0,57.0,29.72,North,0,0.0,1.0,48,0.00,,,0.00,,2013-07-18 19:32:00,
2013-07-18 12:53:00,77.0,56.0,29.72,North,0,0.0,5.0,49,0.00,,,0.00,,2013-07-18 19:53:00,
2013-07-18 13:01:00,77.0,56.0,29.72,North,0,0.0,5.0,49,0.00,,,0.00,,2013-07-18 20:01:00,
2013-07-18 13:11:00,77.0,56.0,29.72,North,0,0.0,5.0,49,0.00,,,0.00,,2013-07-18 20:11:00,
2013-07-18 13:32:00,77.0,56.0,29.72,North,0,0.0,2.0,49,0.00,,,0.00,,2013-07-18 20:32:00,
2013-07-18 13:43:00,77.0,57.0,29.71,North,0,0.0,2.0,50,0.00,,,0.00,,2013-07-18 20:43:00,
2013-07-18 13:52:00,77.0,57.0,29.71,North,0,0.0,2.0,50,0.00,,,0.00,,2013-07-18 20:52:00,
2013-07-18 14:01:00,78.0,57.0,29.71,SSE,168,1.0,3.0,49,0.00,,,0.00,,2013-07-18 21:01:00,
2013-07-18 14:11:00,78.0,57.0,29.71,SSE,168,1.0,3.0,49,0.00,,,0.00,,2013-07-18 21:11:00,
2013-07-18 14:22:00,78.0,57.0,29.71,SSE,168,1.0,3.0,49,0.00,,,0.00,,2013-07-18 21:22:00,
2013-07-18 14:32:00,78.0,57.0,29.71,SSE,168,1.0,3.0,49,0.00,,,0.00,,2013-07-18 21:32:00,
2013-07-18 14:43:00,80.0,57.0,29.70,North,0,0.0,4.0,45,0.00,,,0.00,,2013-07-18 21:43:00,
2013-07-18 14:52:00,80.0,57.0,29.70,North,0,0.0,4.0,45,0.00,,,0.00,,2013-07-18 21:52:00,
2013-07-18 15:01:00,80.0,55.0,29.69,North,0,0.0,2.0,42,0.00,,,0.00,,2013-07-18 22:01:00,
2013-07-18 15:11:00,80.0,55.0,29.69,North,0,0.0,2.0,42,0.00,,,0.00,,2013-07-18 22:11:00,
2013-07-18 15:32:00,79.0,56.0,29.68,North,0,0.0,1.0,45,0.00,,,0.00,,2013-07-18 22:32:00,
2013-07-18 15:42:00,80.0,55.0,29.68,North,0,0.0,3.0,42,0.00,,,0.00,,2013-07-18 22:42:00,
2013-07-18 15:53:00,80.0,55.0,29.68,North,0,0.0,3.0,42,0.00,,,0.00,,2013-07-18 22:53:00,
2013-07-18 16:01:00,81.0,53.0,29.67,WNW,301,1.0,8.0,38,0.00,,,0.00,,2013-07-18 23:01:00,
2013-07-18 16:11:00,81.0,53.0,29.67,WNW,301,1.0,8.0,38,0.00,,,0.00,,2013-07-18 23:11:00,
2013-07-18 16:22:00,82.0,-99.9,29.67,North,0,0.0,5.0,-999,0.00,,,0.00,,2013-07-18 23:22:00,
2013-07-18 16:32:00,82.0,-99.9,29.67,North,0,0.0,5.0,-999,0.00,,,0.00,,2013-07-18 23:32:00,
2013-07-18 16:42:00,81.0,53.0,29.65,SW,232,3.0,8.0,38,0.00,,,0.00,,2013-07-18 23:42:00,
2013-07-18 16:52:00,81.0,53.0,29.65,SW,232,3.0,8.0,38,0.00,,,0.00,,2013-07-18 23:52:00,
2013-07-18 17:11:00,81.0,49.0,29.65,WSW,246,4.0,8.0,33,0.00,,,0.00,,2013-07-19 00:11:00,
2013-07-18 17:32:00,80.0,51.0,29.65,WSW,254,9.0,12.0,36,0.00,,,0.00,,2013-07-19 00:32:00,
2013-07-18 17:42:00,80.0,47.0,29.64,WSW,250,5.0,12.0,32,0.00,,,0.00,,2013-07-19 00:42:00,
2013-07-18 17:52:00,80.0,47.0,29.64,WSW,250,5.0,12.0,32,0.00,,,0.00,,2013-07-19 00:52:00,
2013-07-18 18:11:00,80.0,46.0,29.64,WSW,249,7.0,12.0,30,0.00,,,0.00,,2013-07-19 01:11:00,
2013-07-18 18:21:00,78.0,47.0,29.64,WSW,245,7.0,13.0,34,0.00,,,0.00,,2013-07-19 01:21:00,
2013-07-18 18:32:00,78.0,47.0,29.64,WSW,245,7.0,13.0,34,0.00,,,0.00,,2013-07-19 01:32:00,
2013-07-18 18:42:00,77.0,51.0,29.63,WSW,242,1.0,10.0,41,0.00,,,0.00,,2013-07-19 01:42:00,
2013-07-18 18:52:00,77.0,51.0,29.63,WSW,242,1.0,10.0,41,0.00,,,0.00,,2013-07-19 01:52:00,
2013-07-18 19:01:00,75.0,53.0,29.62,WSW,253,11.0,13.0,46,0.00,,,0.00,,2013-07-19 02:01:00,
2013-07-18 19:11:00,75.0,53.0,29.62,WSW,253,11.0,13.0,46,0.00,,,0.00,,2013-07-19 02:11:00,
2013-07-18 19:22:00,76.0,50.0,29.63,West,263,6.0,9.0,40,0.00,,,0.00,,2013-07-19 02:22:00,
2013-07-18 19:32:00,76.0,50.0,29.63,West,263,6.0,9.0,40,0.00,,,0.00,,2013-07-19 02:32:00,
2013-07-18 19:42:00,76.0,50.0,29.63,West,263,6.0,9.0,40,0.00,,,0.00,,2013-07-19 02:42:00,
2013-07-18 19:52:00,76.0,50.0,29.63,West,263,6.0,9.0,40,0.00,,,0.00,,2013-07-19 02:52:00,
2013-07-18 20:11:00,75.0,51.0,29.63,West,267,5.0,7.0,43,0.00,,,0.00,,2013-07-19 03:11:00,
2013-07-18 20:22:00,74.0,51.0,29.63,North,0,0.0,1.0,45,0.00,,,0.00,,2013-07-19 03:22:00,
2013-07-18 20:32:00,74.0,51.0,29.63,North,0,0.0,1.0,45,0.00,,,0.00,,2013-07-19 03:32:00,
2013-07-18 20:42:00,75.0,50.0,29.63,SSW,195,4.0,6.0,42,0.00,,,0.00,,2013-07-19 03:42:00,
2013-07-18 20:52:00,75.0,50.0,29.63,SSW,195,4.0,6.0,42,0.00,,,0.00,,2013-07-19 03:52:00,
2013-07-18 21:02:00,75.0,50.0,29.63,SSW,195,4.0,6.0,42,0.00,,,0.00,,2013-07-19 04:02:00,
2013-07-18 21:11:00,75.0,50.0,29.63,SSW,195,4.0,6.0,42,0.00,,,0.00,,2013-07-19 04:11:00,
2013-07-18 21:33:00,74.0,51.0,29.64,ESE,111,7.0,8.0,44,0.00,,,0.00,,2013-07-19 04:33:00,
2013-07-18 21:44:00,76.0,52.0,29.63,SE,127,9.0,10.0,43,0.00,,,0.00,,2013-07-19 04:44:00,
2013-07-18 21:52:00,76.0,52.0,29.63,SE,127,9.0,10.0,43,0.00,,,0.00,,2013-07-19 04:52:00,
2013-07-18 22:02:00,76.0,52.0,29.63,SE,127,9.0,10.0,43,0.00,,,0.00,,2013-07-19 05:02:00,
2013-07-18 22:11:00,76.0,52.0,29.63,SE,127,9.0,10.0,43,0.00,,,0.00,,2013-07-19 05:11:00,
2013-07-18 22:21:00,76.0,52.0,29.63,SE,127,9.0,10.0,43,0.00,,,0.00,,2013-07-19 05:21:00,
2013-07-18 22:43:00,71.0,52.0,29.65,SE,132,14.0,15.0,52,0.00,,,0.00,,2013-07-19 05:43:00,
2013-07-18 22:53:00,71.0,52.0,29.65,SE,132,14.0,15.0,52,0.00,,,0.00,,2013-07-19 05:53:00,
2013-07-18 23:01:00,71.0,52.0,29.65,SE,132,14.0,15.0,52,0.00,,,0.00,,2013-07-19 06:01:00,
2013-07-18 23:11:00,71.0,52.0,29.65,SE,132,14.0,15.0,52,0.00,,,0.00,,2013-07-19 06:11:00,
2013-07-18 23:22:00,71.0,52.0,29.65,SE,132,14.0,15.0,52,0.00,,,0.00,,2013-07-19 06:22:00,